This demonstration page uses our WeatherBlox Daily Observations layout. Learn more.

Left ArrowRight Arrow

Hourly Observations for September 30, 2015

Temp ( °F °C ) Dew Point ( °F °C ) Humidity (%) Winds ( mph kmh ) Pressure ( in mb ) Visibility ( mi km ) Precip ( " mm )
12:52 am 00:52 Clear 58 14.4 39 3.9 50 50 E 15 24 30.18 1022 10 16 0.00 0.00
1:52 am 01:52 Partly Cloudy 56 13.3 38 3.3 51 51 NE 7 11 30.19 1022 10 16 0.00 0.00
2:52 am 02:52 Partly Cloudy 52 11.1 42 5.6 69 69 Calm 30.20 1023 10 16 0.00 0.00
3:52 am 03:52 Mostly Clear 53 11.7 38 3.3 57 57 VRB 3 6 30.19 1022 10 16 0.00 0.00
4:52 am 04:52 Mostly Clear 49 9.4 41 5 74 74 WNW 6 9 30.21 1023 10 16 0.00 0.00
5:52 am 05:52 Mostly Clear 49 9.4 41 5 74 74 VRB 3 6 30.21 1023 10 16 0.00 0.00
6:52 am 06:52 Mostly Clear 48 8.9 41 5 77 77 Calm 30.24 1024 10 16 0.00 0.00
7:52 am 07:52 Partly Cloudy 47 8.3 42 5.6 83 83 N 6 9 30.27 1025 10 16 0.00 0.00
8:52 am 08:52 Partly Cloudy 50 10 41 5 71 71 Calm 30.27 1025 10 16 0.00 0.00
9:52 am 09:52 Partly Cloudy 55 12.8 41 5 59 59 Calm 30.28 1025 10 16 0.00 0.00
10:52 am 10:52 Partly Cloudy 58 14.4 43 6.1 58 58 ESE 5 7 30.27 1025 10 16 0.00 0.00
11:52 am 11:52 Partly Cloudy 62 16.7 42 5.6 48 48 VRB 6 9 30.27 1025 10 16 0.00 0.00
12:52 pm 12:52 Mostly Sunny 64 17.8 41 5 43 43 ESE 7 11 30.25 1024 10 16 0.00 0.00
1:52 pm 13:52 Mostly Sunny 66 18.9 40 4.4 39 39 E 5 7 30.22 1024 10 16 0.00 0.00
2:52 pm 14:52 Mostly Sunny 68 20 39 3.9 35 35 ESE 8 13 30.20 1023 10 16 0.00 0.00
3:52 pm 15:52 Mostly Sunny 68 20 39 3.9 35 35 ESE 8 13 30.18 1022 10 16 0.00 0.00
4:52 pm 16:52 Mostly Sunny 69 20.6 38 3.3 32 32 ESE 8 13 30.18 1022 10 16 0.00 0.00
5:52 pm 17:52 Mostly Sunny 68 20 39 3.9 35 35 E 8 13 30.18 1022 10 16 0.00 0.00
6:52 pm 18:52 Mostly Sunny 64 17.8 41 5 43 43 E 7 11 30.18 1022 10 16 0.00 0.00
7:52 pm 19:52 Mostly Clear 60 15.6 42 5.6 52 52 E 7 11 30.20 1023 10 16 0.00 0.00
8:52 pm 20:52 Clear 58 14.4 42 5.6 56 56 E 8 13 30.22 1024 10 16 0.00 0.00
9:52 pm 21:52 Clear 57 13.9 41 5 55 55 ESE 6 9 30.24 1024 10 16 0.00 0.00
10:52 pm 22:52 Clear 56 13.3 41 5 57 57 ESE 5 7 30.25 1024 10 16 0.00 0.00
11:52 pm 23:52 Clear 53 11.7 41 5 64 64 SSE 3 6 30.24 1024 10 16 0.00 0.00

Powered by AerisWeather